Location: Ku?niki
(51.4449°N, 17.8974°E)
Time: 21:16:57
(UTC+00:00)

POLYITAN 1 - Pass Details

Date: 01 July 2022
Orbit: 586 x 605 km, 98.0° (Epoch: 13 August)

Event Time Altitude Azimuth Distance (km) Brightness Sun altitude
Rises 01:15:21 0° 10° (N) 2,859 ? -9.1°
Reaches altitude 10° 01:17:34 10° 5° (N) 1,955 ? -8.9°
Maximum altitude 01:21:40 51° 290° (WNW) 765 ? -8.5°
Enters shadow 01:25:41 11° 215° (SW) 1,912 ? -8.2°
